Location: Unspecified
(50.7693°N, 0.0000°E)
Time: 09:26:13
(UTC+00:00)

Transit 4A - Pass Details

Date: 01 July 2019
Orbit: 864 x 981 km, 66.8° (Epoch: 25 August)

Event Time Altitude Azimuth Distance (km) Brightness Sun altitude
Rises 08:39:36 0° 263° (W) 3,661 10.6 42.0°
Reaches altitude 10° 08:42:34 10° 275° (W) 2,726 10.0 42.5°
Maximum altitude 08:47:58 28° 333° (NNW) 1,762 9.3 43.3°
Drops below altitude 10° 08:53:25 10° 31° (NNE) 2,743 10.6 44.1°
Sets 08:56:25 0° 43° (NE) 3,686 11.3 44.6°
